Location: *
(51.0333°S, 178.4667°E)
Time: 05:29:12
(UTC+00:00)

CZ-2C R/B - Pass Details

Date: 15 November 2019
Orbit: 703 x 909 km, 98.1° (Epoch: 09 December)

Event Time Altitude Azimuth Distance (km) Brightness Sun altitude
Rises 08:31:26 0° 161° (SSE) 3,532 6.8 -8.0°
Reaches altitude 10° 08:34:02 10° 153° (SSE) 2,604 6.0 -8.3°
Maximum altitude 08:39:29 39° 85° (E) 1,350 3.9 -8.9°
Drops below altitude 10° 08:44:56 10° 16° (NNE) 2,603 5.2 -9.5°
Enters shadow 08:45:36 - 14° (NNE) 2,836 5.4 -9.6°
